Content
SEND FEEDBACK

Daily
Averages
Monthly
Summary
United States of America

NELIGH, NEBRASKA


Home > North America > United States > Nebraska
Elevation: 1750 feet     Latitude: 42 08N     Longitude: 098 02W

WEATHER
 
SELECT A DAY
Number of Records: 252,388;   Date Range: 8/16/04 - 11/22/14
 
SHARE

PRINT THIS DATA

[ ← Previous Day ]
WEATHER ALMANAC - DECEMBER 25, 2013
[ Next Day → ]
[ °C ]   °F
Weather ElementAverageHighLow
Temperature27.9 °F39.2 °F (11:55 am)11.8 °F (1:35 am)
Dewpoint18.3 °F24.8 °F (10:55 am)8.2 °F (1:35 am)
Humidity69.1 %91 % (12:55 am)43 % (2:55 pm)
Barometer30.23 in30.28 in (3:55 pm)30.17 in (4:35 am)
Wind Speed8 mph24.2 mph (12:55 pm)
Wind Gust31.1 mph (10:35 am)
Weather ElementAverage
Visibility9.7 mi
Wind DirectionS (183.8 °)

Weather ElementTotal
Precipitation---
Heating Degree Days39.5 (Base 65)
Averaged from 71 records on December 25, 2013
WEATHER CONDITIONS BREAKOUT
WIND DIRECTION BREAKOUT
WEATHER BY HOUR - DECEMBER 25, 2013
[ °C ]   °F
Local TimeTemperatureDewpointHumidityBarometerVisibilityWind DirectionWind SpeedGust SpeedPrecipitationEventsConditions
12:35 AM15.1 °F12.6 °F90 %30.21 in7.0 miCalmClear
12:55 AM17.6 °F15.3 °F91 %30.20 in7.0 miCalmClear
1:15 AM17.1 °F14.5 °F90 %30.20 in7.0 miCalmClear
1:35 AM11.8 °F8.2 °F85 %30.19 in10.0 miCalmClear
1:55 AM12.7 °F9.7 °F88 %30.18 in7.0 miCalmClear
2:15 AM16.2 °F13.1 °F88 %30.18 in7.0 miCalmClear
2:35 AM17.1 °F14.5 °F90 %30.19 in7.0 miCalmClear
2:55 AM14.2 °F11.5 °F89 %30.19 in10.0 miCalmClear
3:15 AM17.4 °F13.8 °F86 %30.19 in10.0 miCalmClear
3:35 AM23.2 °F20.7 °F90 %30.19 in10.0 miCalmClear
3:55 AM22.6 °F19.8 °F89 %30.19 in10.0 miNNW (330°)4.6 mphClear
4:15 AM24.3 °F21.2 °F88 %30.18 in10.0 miCalmMostly Cloudy
4:35 AM25.2 °F21.6 °F86 %30.17 in10.0 miWNW (300°)4.6 mphOvercast
4:55 AM26.2 °F22.5 °F86 %30.18 in10.0 miNW (310°)4.6 mphOvercast
5:15 AM27.1 °F23.0 °F84 %30.18 in10.0 miCalmOvercast
5:35 AM28.2 °F23.0 °F81 %30.18 in10.0 miWNW (290°)5.8 mphMostly Cloudy
5:55 AM26.8 °F21.6 °F81 %30.18 in10.0 miNW (310°)4.6 mphScattered Clouds
6:15 AM27.5 °F21.7 °F79 %30.17 in10.0 miNNW (330°)6.9 mphClear
6:35 AM27.9 °F21.6 °F77 %30.17 in10.0 miNNW (340°)6.9 mphClear
6:55 AM28.0 °F21.2 °F76 %30.17 in10.0 miNW (310°)6.9 mphClear
7:15 AM30.4 °F22.1 °F71 %30.18 in10.0 miWNW (300°)12.7 mphClear
7:35 AM31.5 °F22.1 °F68 %30.19 in10.0 miNW (310°)9.2 mphClear
7:55 AM32.0 °F21.9 °F66 %30.19 in10.0 miWNW (290°)12.7 mph17.3 mphClear
8:15 AM32.4 °F21.9 °F65 %30.20 in10.0 miWNW (300°)13.8 mph20.7 mphClear
8:35 AM32.2 °F21.9 °F66 %30.20 in10.0 miNW (310°)13.8 mph19.6 mphClear
8:55 AM32.7 °F22.1 °F65 %30.21 in10.0 miNW (310°)16.1 mph21.9 mphClear
9:15 AM32.9 °F22.6 °F66 %30.23 in10.0 miNW (320°)17.3 mph23.0 mphClear
9:35 AM34.2 °F23.0 °F64 %30.24 in10.0 miNW (320°)15.0 mph20.7 mphClear
9:55 AM35.8 °F23.5 °F61 %30.25 in10.0 miNW (320°)19.6 mph25.3 mphClear
10:15 AM36.5 °F23.7 °F60 %30.26 in10.0 miNW (320°)20.7 mph27.6 mphClear
10:35 AM36.7 °F24.3 °F61 %30.27 in10.0 miNNW (330°)23.0 mph31.1 mphClear
10:55 AM37.4 °F24.8 °F60 %30.27 in10.0 miNNW (330°)18.4 mph26.5 mphScattered Clouds
11:15 AM37.9 °F24.8 °F59 %30.27 in10.0 miNNW (330°)21.9 mph31.1 mphScattered Clouds
11:35 AM38.5 °F24.8 °F58 %30.27 in10.0 miNNW (330°)17.3 mph23.0 mphClear
11:55 AM39.2 °F24.3 °F55 %30.27 in10.0 miNW (310°)18.4 mph26.5 mphScattered Clouds
12:15 PM38.5 °F23.7 °F55 %30.27 in10.0 miNNW (330°)17.3 mph25.3 mphMostly Cloudy
12:35 PM38.5 °F23.5 °F55 %30.26 in10.0 miNNW (330°)17.3 mph24.2 mphOvercast
12:55 PM39.2 °F23.2 °F53 %30.26 in10.0 miNNW (330°)24.2 mph29.9 mphOvercast
1:15 PM38.7 °F21.6 °F50 %30.26 in10.0 miNNW (340°)18.4 mph24.2 mphMostly Cloudy
1:35 PM38.5 °F19.9 °F47 %30.25 in10.0 miNW (320°)23.0 mph27.6 mphScattered Clouds
1:55 PM39.0 °F19.6 °F46 %30.25 in10.0 miNW (320°)20.7 mph25.3 mphScattered Clouds
2:15 PM38.8 °F19.2 °F45 %30.26 in10.0 miNW (310°)18.4 mph26.5 mphScattered Clouds
2:35 PM37.9 °F19.2 °F47 %30.27 in10.0 miNW (320°)19.6 mph23.0 mphScattered Clouds
2:55 PM39.0 °F18.1 °F43 %30.27 in10.0 miNW (320°)19.6 mph25.3 mphMostly Cloudy
3:15 PM38.7 °F17.6 °F43 %30.27 in10.0 miNNW (330°)17.3 mphScattered Clouds
3:35 PM38.3 °F17.4 °F43 %30.27 in10.0 miNW (320°)18.4 mph24.2 mphClear
3:55 PM37.8 °F17.6 °F44 %30.28 in10.0 miNW (320°)12.7 mph21.9 mphClear
4:15 PM37.0 °F18.1 °F46 %30.28 in10.0 miNNW (330°)12.7 mph17.3 mphClear
4:35 PM36.0 °F18.5 °F49 %30.28 in10.0 miNNW (330°)10.4 mph17.3 mphClear
4:55 PM34.0 °F18.1 °F52 %30.28 in10.0 miNNW (330°)6.9 mphClear
5:15 PM32.0 °F18.0 °F56 %30.28 in10.0 miNNW (340°)4.6 mphClear
5:35 PM30.2 °F17.6 °F60 %30.27 in10.0 miWNW (300°)3.5 mphClear
5:55 PM25.9 °F16.0 °F66 %30.27 in10.0 miCalmClear
6:15 PM24.8 °F15.6 °F68 %30.27 in10.0 miCalmClear
6:35 PM22.3 °F14.7 °F73 %30.27 in10.0 miCalmClear
6:55 PM21.6 °F14.2 °F73 %30.27 in10.0 miCalmClear
7:15 PM18.1 °F11.7 °F76 %30.26 in10.0 miCalmClear
7:35 PM20.5 °F14.4 °F77 %30.26 in10.0 miCalmClear
7:55 PM15.3 °F10.8 °F82 %30.26 in10.0 miCalmClear
8:15 PM18.7 °F13.1 °F79 %30.26 in10.0 miCalmClear
8:35 PM16.5 °F12.0 °F82 %30.25 in10.0 miCalmClear
8:55 PM18.3 °F13.3 °F81 %30.25 in10.0 miCalmClear
9:15 PM19.4 °F14.2 °F80 %30.23 in10.0 miCalmClear
9:35 PM21.4 °F14.9 °F76 %30.23 in10.0 miSE (140°)4.6 mphClear
9:55 PM20.5 °F14.0 °F76 %30.22 in10.0 miCalmClear
10:15 PM21.4 °F14.7 °F75 %30.21 in10.0 miCalmClear
10:35 PM22.8 °F14.9 °F72 %30.20 in10.0 miSE (140°)3.5 mphClear
10:55 PM24.4 °F15.6 °F69 %30.20 in10.0 miCalmClear
11:15 PM25.0 °F15.8 °F68 %30.20 in10.0 miCalmClear
11:35 PM24.6 °F15.6 °F69 %30.19 in10.0 miCalmClear
11:55 PM24.1 °F15.6 °F70 %30.19 in10.0 miCalmClear
Hourly data recorded from KBVN, located miles away from Neligh, Nebraska







STORIES FROM OUR PARTNERS